Flag for United Kingdom Weather past 2 weeks in Watford, England, United Kingdom

Now
41 °F

Sunny.


Feels Like: 37 °F
Forecast: 36 / 53 °F
Wind: 6 mph from West

Location: Northolt

Current Time: Mar 27, 2015 at 9:00:02 AM

Latest Report: Mar 27, 2015 at 7:50 AM


Visibility: 10 mi

Pressure: 30.12 "Hg

Humidity: 76%

Dew point: 34 °F

Location of WatfordLocation

Historic Weather in Watford — Graph

°F

Watford temperature yesterday

Maximum temperature yesterday: 54 °F (at 1:50 PM)
Minimum temperature yesterday: 39 °F (at 12:50 AM)
Average temperature yesterday: 46 °F

Past Weeks' High & Low Weather Summary

 TemperatureHumidityPressure
High59 °F (Mar 12, 12:50 PM)100% (Mar 16, 11:50 PM)30.54 "Hg (Mar 16, 11:50 PM)
Low32 °F (Mar 23, 12:50 AM)21% (Mar 12, 2:50 PM)29.53 "Hg (Mar 26, 8:50 AM)
Average44 °F70%30.18 "Hg
* Reported Mar 12 7:50 AM — Mar 27 7:50 AM, Watford, Weather by CustomWeather, © 2015

Note: Actual official high and low records may vary slightly from our data, if they occured in-between our weather recording intervals... More about our weather records

Advertising

Watford weather history for previous 24 hours

 ConditionsComfort  
Time TempWeatherWind HumidityBarometerVisibility
7:50 AM
Fri, Mar 27
41 °FSunny.6 mph76%30.12 "Hg10 mi
6:50 AM39 °FSunny.8 mph75%30.09 "Hg10 mi
5:50 AM36 °FScattered clouds.7 mph87%30.09 "HgN/A
4:50 AM36 °FClear.2 mph87%30.07 "HgN/A
3:50 AM37 °FClear.5 mph81%30.04 "HgN/A
2:50 AM37 °FClear.No wind81%30.04 "HgN/A
1:50 AM39 °FClear.8 mph75%30.01 "HgN/A
12:50 AM41 °FClear.8 mph66%29.98 "HgN/A
11:50 PM
Thu, Mar 26
43 °FClear.9 mph61%29.98 "HgN/A
10:50 PM45 °FClear.10 mph57%29.95 "Hg10 mi
9:50 PM45 °FClear.13 mph57%29.92 "Hg10 mi
8:50 PM46 °FClear.9 mph50%29.89 "Hg10 mi
7:50 PM48 °FClear.13 mph46%29.86 "Hg10 mi
6:50 PM48 °FClear.8 mph50%29.83 "Hg10 mi
5:50 PM50 °FSunny.15 mph47%29.77 "Hg10 mi
4:50 PM52 °FScattered clouds.20 mph47%29.71 "HgN/A
3:50 PM54 °FScattered clouds.18 mph51%29.68 "HgN/A
2:50 PM54 °FScattered clouds.20 mph51%29.65 "HgN/A
1:50 PM54 °FScattered clouds.23 mph58%29.62 "HgN/A
12:50 PM48 °FRain showers. Partly sunny.20 mph87%29.59 "HgN/A
11:50 AM50 °FPartly sunny.12 mph82%29.56 "HgN/A
10:50 AM48 °FPartly sunny.7 mph94%29.56 "HgN/A
10:00 AM45 °FDrizzle. Mostly cloudy.8 mph93%29.53 "Hg3 mi
9:50 AM45 °FDrizzle. Mostly cloudy.9 mph93%29.53 "HgN/A
Weather by CustomWeather, © 2015

See weather overviewHow to use our weather pages